Hemavan current weather conditions

sailwx.info

Wind from 180 at 2 knots

Air temperature -0.0° C
Visibility: greater than 5.4 NM
Dewpoint -2.0° C

Last reported at 2017-May-29 02:50 UTC.
Time now 2017-May-29 03:43 UTC

Location: N 65°48' E 015°05'.
View on Google Maps.

See reports from other nearby stations

  
Tides and Currents Weather Stations Pressure Air Temp Water Temp Dewpoint Dewpoint Depression Visibility Wind Speed Wind Dir Waves Ship Positions
date/time (UTC)wind fromknots sea level pressurealtimeterstation pressurevisibilityair tempwater tempwave heightnotes
2017-May-29 02:50 180 2 5.4-0.0
2017-May-29 02:20 5.4-1.0
2017-May-29 01:50 150 2 5.4-2.0
2017-May-29 01:20 160 2 5.4-2.0
2017-May-29 00:50 5.4-2.0
2017-May-29 00:20 5.4-1.0
2017-May-28 23:50 5.4-0.0
2017-May-28 23:20 5.4 1.0
2017-May-28 22:50 5.4 2.0
2017-May-28 22:20 5.4 2.0
2017-May-28 21:50 330 4 5.4 2.0
2017-May-28 21:20 020 5 5.4 2.0
2017-May-28 20:50 360 6 5.4 3.0
2017-May-28 20:20 300 11 5.4 4.0
2017-May-28 19:50 320 17 5.4 4.0
2017-May-28 19:20 310 15 5.4 4.0
2017-May-28 18:50 330 20 5.4 4.0
2017-May-28 18:20 330 17 5.4 5.0
2017-May-28 17:50 330 13 5.4 5.0
2017-May-28 17:20 290 5 5.4 5.0
2017-May-28 16:50 320 6 5.4 5.0
2017-May-28 16:20 350 9 5.4 5.0
2017-May-28 15:50 360 11 5.4 6.0
2017-May-28 15:20 280 13 5.4 5.0
2017-May-28 14:50 5.4 6.0
2017-May-28 14:20 300 14 5.4 7.0
2017-May-28 13:50 310 17 5.4 7.0
2017-May-28 13:20 290 13 5.4 6.0
2017-May-28 12:50 310 5 gusting 18 5.4 7.0
2017-May-28 12:20 270 8 5.4 7.0
2017-May-28 11:50 270 7 5.4 7.0
2017-May-28 11:20 270 11 5.4 7.0
2017-May-28 10:50 290 11 5.4 8.0
2017-May-28 10:20 310 7 5.4 8.0
2017-May-28 09:50 340 6 5.4 8.0
2017-May-28 09:20 340 6 5.4 8.0
2017-May-28 08:50 340 6 5.4 8.0
2017-May-28 08:20 340 5 5.4 8.0
2017-May-28 07:50 340 8 5.4 8.0
2017-May-28 07:20 340 5 5.4 8.0
2017-May-28 06:50 030 4 5.4 7.0 Mist.
2017-May-28 06:20 070 0 5.4 6.0 Light drizzle.
2017-May-28 05:50 5.4 5.0 Drizzle.
2017-May-28 05:20 4.9 6.0 Mist.
2017-May-28 04:50 5.4 5.0
2017-May-28 04:20 2.4 5.0 Rain.
2017-May-28 03:50 3.2 6.0 Light rain.
2017-May-28 03:20 130 6 5.4 6.0 Light drizzle.
2017-May-28 02:50 140 6 5.4 6.0 Drizzle.
2017-May-28 02:20 140 7 5.4 5.0 Light rain.
2017-May-28 01:50 130 2 2.3 6.0 Heavy rain.
2017-May-28 01:20 140 6 5.4 5.0
2017-May-28 00:50 150 6 5.4 5.0
2017-May-28 00:20 160 12 5.4 5.0 Rain.
2017-May-27 23:50 150 13 5.4 5.0
2017-May-27 23:20 160 14 5.4 5.0 Light rain.
2017-May-27 22:50 170 13 5.4 5.0 Drizzle.
2017-May-27 22:20 160 12 5.4 5.0 Light drizzle.
2017-May-27 21:50 170 8 5.4 5.0 Light rain.
2017-May-27 21:20 170 8 5.4 5.0 Light rain.
2017-May-27 20:50 160 6 5.4 5.0 Light rain.
2017-May-27 20:20 150 6 5.4 4.0 Light rain.
2017-May-27 19:50 110 6 5.4 4.0 Light rain.
2017-May-27 19:20 110 5 5.4 5.0 Light rain.
2017-May-27 18:50 5.4 5.0 Drizzle.
2017-May-27 18:20 120 4 5.4 5.0 Drizzle.
2017-May-27 17:50 5.4 5.0 Light rain.
2017-May-27 17:20 320 0 5.4 5.0 Light rain.
2017-May-27 16:50 5.4 6.0 Light rain.
2017-May-27 16:20 5.4 6.0 Light rain.
2017-May-27 15:50 5.4 6.0 Light rain.
2017-May-27 15:20 5.4 6.0 Light rain.
2017-May-27 14:50 5.4 6.0 Light rain.
2017-May-27 14:20 330 1 5.4 6.0 Drizzle.
2017-May-27 13:50 5.4 6.0 Drizzle.
2017-May-27 13:20 5.4 6.0 Drizzle.
2017-May-27 12:50 5.4 6.0 Drizzle.
2017-May-27 12:20 5.4 6.0 Drizzle.
2017-May-27 11:50 5.4 6.0 Light drizzle.
2017-May-27 11:20 300 1 5.4 5.0 Light drizzle.
2017-May-27 10:50 5.4 5.0 Light rain.
2017-May-27 10:20 5.4 4.0 Light rain.
2017-May-27 09:50 5.4 4.0 Light rain.
2017-May-27 09:20 4.9 3.0 Drizzle.
2017-May-27 08:50 4.9 3.0
2017-May-27 08:20 5.4 3.0 Light drizzle.
2017-May-27 07:50 5.4 3.0 Drizzle.
2017-May-27 07:20 5.4 3.0 Light rain.
2017-May-27 06:50 150 4 5.4 2.0 Light drizzle.
2017-May-27 06:20 3.2 2.0 Light rain.
2017-May-27 05:50 4.3 1.0 Light rain.
2017-May-27 05:20 310 0 2.7 1.0 Light snow.
2017-May-27 04:50 1.9 1.0 Rain snow.
2017-May-27 04:20 300 0 2.2 1.0 Light rain snow.
2017-May-27 03:50 310 1 3.8 1.0 Light rain.
2017-May-27 03:20 310 0 5.4 1.0